Find Starlink 32085

NORAD ID: 59685 Int'l Des: 2024-086 Owner: SPXS Country: US Constellation: starlink operational
LEOCIRCULAR

当前视图

正在加载3D地球...

About Starlink 32085

Starlink 32085 (NORAD 59685) is a starlink constellation satellite (v2 mini) launched May 8, 2024 by SPXS of US. It operates in LEO, CIRCULAR orbit with a mass of 730.00 kg.

关于 Starlink 32085

正在加载描述...

即将过境

Passes for default location (London). Set your location on the main map for personalized predictions.

高度历史

Loading altitude history...

两行轨道根数

1 59685U 24086D 26191.03891146 -.00000270 00000-0 -30085-6 0 9997
2 59685 43.0050 88.9530 0001278 274.8126 85.2580 15.27572891122828
Epoch: Jul 10, 2026 • Age: 17 hours

当前状态

高度 486.4 km
远地点 / 近地点 N/A
速度 7.62 km/s
星下点 -17.36°S, 93.02°E
发射日期 May 8, 2024
运行时间 2.1 years
类型 internet

技术详情

分类 Payload
质量 730.00 kg
干质量 700.00 kg
总质量 730.00 kg
长度 0.30 m
直径 4.10 m
跨度 29.00 m
形状 Box + pan
制造商 SPXS
平台类型 Starlink V2M
阶段状态 In Orbit
所有者/国家 SPXS/US

Most Searched